Weather History for KWMC - July, 2014

Change the Weather History Date:

Monday, July 7, 2014

  Actual Average Record
Temperature  
Mean Temperature 85 °F 71 °F  
Max Temperature 103 °F 92 °F 103 °F (2014)
Min Temperature 66 °F 51 °F 33 °F (1903)
Degree Days  
Heating Degree Days 0 0  
Month to date heating degree days 0 6  
Since 1 June heating degree days 74 111  
Since 1 July heating degree days 0 6  
Cooling Degree Days 20 7  
Month to date cooling degree days 92 43  
Year to date cooling degree days 175 133  
Since 1 June cooling degree days 166 122  
Growing Degree Days 34 (Base 50)    
Moisture  
Dew Point 31 °F    
Average Humidity 16    
Maximum Humidity 25    
Minimum Humidity 6    
Precipitation  
Precipitation 0.00 in 0.01 in 0.11 in (2011)
Month to date precipitation 0.00 0.05  
Year to date precipitation 3.99 4.98  
Snow  
Snow 0.00 in 0.00 in 0.00 in (1877)
Month to date snowfall 0.0 0.0  
Since 1 June snowfall 0.0 T  
Since 1 July snowfall 0.0 0.0  
Snow Depth 0.00 in    
Sea Level Pressure  
Sea Level Pressure 29.88 in    
Wind  
Wind Speed 10 mph (North)    
Max Wind Speed 21 mph    
Max Gust Speed 27 mph    
Visibility 10 miles    
Events      
T = Trace of Precipitation, MM = Missing Value Source: NWS Daily Summary

Daily Weather History Graph

Daily Weather History Graph

Search for Another Location

Airport or City:

Trip Planner

Search our weather history database for the weather conditions in past years. The results will help you decide how hot, cold, wet, or windy it might be!

Date:

Astronomy

Jul. 07, 2014 Rise Set
Actual Time 5:26 AM PDT 8:25 PM PDT
Civil Twilight 4:53 AM PDT 8:58 PM PDT
Nautical Twilight 4:11 AM PDT 9:40 PM PDT
Astronomical Twilight 3:22 AM PDT 10:29 PM PDT
Moon 3:32 PM PDT (7/7) 1:24 AM PDT (7/7)
Length of Visible Light 16h 04m
Length of Day
14h 58m
Waxing Gibbous, 73% of the Moon is Illuminated
Jul 7
Waxing Gibbous
Jul 12
Full
Jul 18
Last Quarter
Jul 26
New
Aug 3
First Quarter

Hourly Weather History & Observations

Time (PDT) Temp. Dew Point Humidity Pressure Visibility Wind Dir Wind Speed Gust Speed Precip Events Conditions
12:56 AM 80.1 °F 21.9 °F 12% 29.87 in 10.0 mi North 12.7 mph - N/A   Clear
1:56 AM 71.1 °F 23.0 °F 16% 29.89 in 10.0 mi NNW 8.1 mph - N/A   Clear
2:56 AM 66.9 °F 23.0 °F 19% 29.90 in 10.0 mi WNW 5.8 mph - N/A   Clear
3:56 AM 72.0 °F 25.0 °F 17% 29.90 in 10.0 mi NW 5.8 mph - N/A   Clear
4:56 AM 73.0 °F 30.9 °F 21% 29.91 in 10.0 mi North 11.5 mph - N/A   Clear
5:56 AM 71.1 °F 33.1 °F 25% 29.93 in 10.0 mi Variable 4.6 mph - N/A   Clear
6:56 AM 75.0 °F 36.0 °F 24% 29.93 in 10.0 mi NNE 6.9 mph - N/A   Clear
7:56 AM 80.1 °F 36.0 °F 20% 29.93 in 10.0 mi North 9.2 mph - N/A   Clear
8:56 AM 84.9 °F 35.1 °F 17% 29.94 in 10.0 mi NNE 19.6 mph - N/A   Clear
9:56 AM 89.1 °F 35.1 °F 15% 29.93 in 10.0 mi NNE 16.1 mph - N/A   Clear
10:56 AM 93.2 °F 33.8 °F 12% 30.08 in 10.0 mi North 17.3 mph 24.2 mph N/A   Clear
11:56 AM 96.1 °F 32.0 °F 10% 29.89 in 10.0 mi North 15.0 mph 23.0 mph N/A   Clear
12:56 PM 98.1 °F 30.0 °F 9% 29.85 in 10.0 mi North 8.1 mph - N/A   Clear
1:56 PM 100.0 °F 28.0 °F 8% 29.84 in 10.0 mi North - - N/A   Clear
2:56 PM 102.0 °F 25.0 °F 7% 29.82 in 10.0 mi North - - N/A   Clear
3:56 PM 102.9 °F 25.0 °F 6% 29.79 in 10.0 mi NW 10.4 mph 17.3 mph N/A   Clear
4:56 PM 102.0 °F 26.1 °F 7% 29.78 in 10.0 mi NNW 11.5 mph - N/A   Clear
5:56 PM 99.0 °F 27.0 °F 8% 29.78 in 10.0 mi NNW 10.4 mph - N/A   Clear
6:56 PM 97.0 °F 26.1 °F 8% 29.79 in 10.0 mi ESE 8.1 mph - N/A   Clear
7:56 PM 89.1 °F 34.0 °F 14% 29.80 in 10.0 mi SE 13.8 mph - N/A   Clear
8:56 PM 86.0 °F 36.0 °F 17% 29.83 in 10.0 mi SSE 9.2 mph 17.3 mph N/A   Clear
9:56 PM 78.8 °F 33.8 °F 20% 30.03 in 10.0 mi SSW 8.1 mph - N/A   Clear
10:56 PM 78.1 °F 36.0 °F 22% 29.84 in 10.0 mi South 9.2 mph - N/A   Clear
11:56 PM 75.0 °F 37.9 °F 26% 29.85 in 10.0 mi ENE 5.8 mph - N/A   Clear